Miscellaneous Local Product
Issued by NWS North Platte, NE

Home | Current Version | Previous Version | Text Only | Print | Product List | Glossary On
Versions: 1 2 3 4 5 6 7 8 9 10 11 12 13 14 15 16 17 18 19 20 21 22 23 24 25 26 27 28 29 30 31 32 33 34 35 36 37 38 39 40 41 42 43 44 45 46 47 48 49 50
000
AXUS43 KLBF 312110
MISLBF


WESTERN AND NORTH CENTRAL NEBRASKA HOURLY WEATHER ROUNDUP
NATIONAL WEATHER SERVICE NORTH PLATTE NE
400 PM CDT FRI JUL 31 2015

***STATIONS NOT REPORTING VARIABLES SUCH AS SKY/WEATHER OR
PRESSURE ARE PROVIDED BY THE NEBRASKA DEPARTMENT OF
ROADS...RAWS...AND APRS NETWORKS...AND ARE NOT UNDER
NATIONAL WEATHER SERVICE QUALITY CONTROL***

...OBSERVATIONS IN AND NEAR THE EASTERN PANHANDLE OF NEBRASKA...

CITY           SKY/WX    TMP DP  RH WIND       PRES   REMARKS
PINE RIDGE     SUNNY     92  47  21 E7        30.15F
CHADRON        SUNNY     93  53  25 VRB7      30.14F HX  90
ALLIANCE       MOSUNNY   86  47  25 N8        30.20S
SIDNEY         MOSUNNY   91  46  21 S3        30.23F
BIG SPRINGS      N/A     91  57  31 E7          N/A
$$

...OBSERVATIONS IN NORTH CENTRAL NEBRASKA...

CITY           SKY/WX    TMP DP  RH WIND       PRES   REMARKS
VALENTINE      SUNNY     94  46  19 CALM      30.12F HX  90
THEDFORD       MOSUNNY   95  53  23 N7        30.14F HX  93
AINSWORTH      LGT RAIN  84  68  58 CALM      30.12F
O`NEILL        SUNNY     90  61  38 NE3       30.10F HX  90
ORD            MOSUNNY   94  59  31 W7        30.06  HX  93
BROKEN BOW     MOSUNNY   93  64  38 SW9       30.11F HX  94
SPRINGVIEW       N/A     92  57  30 NE5         N/A  HX  90
CHAMBERS         N/A     94  64  36 N7          N/A  HX  95
EWING            N/A     90  71  52 NE3         N/A  HX  96
$$

...OBSERVATIONS IN SOUTHWEST NEBRASKA AND FAR NORTHEAST COLORADO...

CITY           SKY/WX    TMP DP  RH WIND       PRES   REMARKS
WRAY           FAIR      95  47  19 S7        30.18F HX  92
IMPERIAL       MOSUNNY   89  52  28 VRB3      30.16F
OGALLALA       SUNNY     89  60  38 SE6       30.18F
NORTH PLATTE   SUNNY     92  60  34 SE6       30.13F HX  91
MCCOOK         SUNNY     95  57  27 S10       30.13F HX  94
LEXINGTON      SUNNY     93  61  34 CALM      30.13F HX  93
PAXTON           N/A     90  63  40 S7          N/A  HX  91
BRADY            N/A     91  68  47 CALM        N/A  HX  95
CALLAWAY         N/A     91  71  51 S9          N/A  HX  97
$$

...NORTH PLATTE AREA...

CITY           SKY/WX    TMP DP  RH WIND       PRES   REMARKS
AIRPORT        SUNNY     92  60  34 SE6       30.13F HX  91
DOWNTOWN         N/A     94  58  29 S3          N/A  HX  93
SANDRIDGE        N/A     94  57  28 SW3         N/A  HX  92
HILLCREST        N/A     93  55  27 S6          N/A  HX  91
$$

...SOME WEATHER OBSERVATIONS FROM AROUND THE REGION...

CITY           SKY/WX    TMP DP  RH WIND       PRES   REMARKS
DENVER         MOSUNNY   89  45  21 S16       30.26F
LARAMIE        MOSUNNY   81  47  30 E17G25    30.38F
CHEYENNE       MOSUNNY   72  55  55 E8        30.33F
SCOTTSBLUFF    MOSUNNY   93  48  21 S10       30.19F
RAPID CITY     SUNNY     87  53  31 E10       30.17F
PIERRE         SUNNY     91  49  23 MISG      30.08F
WINNER         FAIR      93  57  29 NE5       30.10F HX  91
SIOUX FALLS    MOSUNNY   87  53  31 CALM      30.09F
OMAHA          MOSUNNY   89  73  59 NW8       30.04F HX  97
GRAND ISLAND   MOSUNNY   92  67  43 S15       30.09F HX  95
KANSAS CITY    MOSUNNY   87  69  54 W6        30.10F HX  91
WICHITA        MOSUNNY   91  67  44 NW3       30.10F HX  94
HAYS           SUNNY     91  63  38 S8        30.13F HX  92
LIBERAL        CLOUDY    82  64  54 E3        30.16F
GOODLAND       MOSUNNY   88  60  38 S12       30.20F
$$



USA.gov is the U.S. government's official web portal to all federal, state and local government web resources and services.